Regional Weather Roundup
Issued by NWS Charleston, WV

Home | Current Version | Previous Version | Graphics & Text | Print | Product List | Glossary On
Versions: 1 2 3 4 5 6 7 8 9 10 11 12 13 14 15 16 17 18 19 20 21 22 23 24 25 26 27 28 29 30 31 32 33 34 35 36 37 38 39 40 41 42 43 44 45 46 47 48 49 50
000
ASUS41 KRLX 020010
RWRRLX
West Virginia Regional Weather Roundup
National Weather Service Charleston WV
700 PM EST SUN MAR 01 2015

Note: "fair" indicates few or no clouds below 12,000 feet with no
significant weather and/or obstructions to visibility.

WVZ003-020100-
Northern Panhandle of West Virginia

CITY           SKY/WX    TMP DP  RH WIND       PRES   REMARKS
WHEELING       CLOUDY    35  33  92 SW7       30.19S FOG
$$

WVZ009-020100-
Northwest West Virginia

CITY           SKY/WX    TMP DP  RH WIND       PRES   REMARKS
PARKERSBURG    LGT RAIN  39  35  86 W3        30.26R FOG
$$

WVZ006-020100-
Western West Virginia

CITY           SKY/WX    TMP DP  RH WIND       PRES   REMARKS
HUNTINGTON     CLOUDY    39  39 100 SW5       30.25S FOG
$$

WVZ015-020100-
West Central West Virginia

CITY           SKY/WX    TMP DP  RH WIND       PRES   REMARKS
CHARLESTON     LGT RAIN  42  41  96 SW6       30.24F FOG
$$

WVZ022-031-020100-
North Central West Virginia

CITY           SKY/WX    TMP DP  RH WIND       PRES   REMARKS
CLARKSBURG     LGT RAIN  39  39 100 S9        30.19F FOG
MORGANTOWN     LGT RAIN  40  37  89 SW5       30.19F FOG
$$

WVZ025-035-042-045-020100-
Southern West Virginia

CITY           SKY/WX    TMP DP  RH WIND       PRES   REMARKS
BECKLEY        CLOUDY    41  39  93 SW3       30.24F FOG
LOGAN          CLOUDY    43  43 100 CALM      30.22S
BLUEFIELD      LGT RAIN  46  42  86 W13       30.26S FOG
LEWISBURG      MIX PCPN  36  34  94 CALM      30.26S
$$

WVZ047-020100-
Northern Mountains of West Virginia

CITY           SKY/WX    TMP DP  RH WIND       PRES   REMARKS
ELKINS         LGT RAIN  43  41  93 SW8G18    30.22S FOG
$$

WVZ052-020100-
Eastern Panhandle of West Virginia

CITY           SKY/WX    TMP DP  RH WIND       PRES   REMARKS
MARTINSBURG    CLOUDY    32  28  85 CALM      30.25F FOG
PETERSBURG     CLOUDY    34  34  99 CALM      30.21F FOG
$$


USA.gov is the U.S. government's official web portal to all federal, state and local government web resources and services.